Flag for South Korea Weather past 2 weeks in Daegu, South Korea

Now
70 °F

Light rain. Mostly cloudy.


Feels Like: 70 °F
Forecast: 68 / 78 °F
Wind: 2 mph from Southwest

Location: Taegu Ab

Current Time: Sep 1, 2015 at 5:51:23 AM

Latest Report: Sep 1, 2015 at 5:00 AM


Visibility: N/A

Pressure: 29.80 "Hg

Humidity: 88%

Dew point: 66 °F

Location of DaeguLocation

Historic Weather in Daegu — Graph

°F

Daegu temperature yesterday

Maximum temperature yesterday: 84 °F (at 2:00 PM)
Minimum temperature yesterday: 68 °F (at 5:00 AM)
Average temperature yesterday: 75 °F

Past Weeks' High & Low Weather Summary

 TemperatureHumidityPressure
High88 °F (Aug 23, 4:00 PM)94% (Aug 17, 4:00 AM)29.95 "Hg (Aug 17, 4:00 AM)
Low64 °F (Aug 27, 3:00 AM)48% (Aug 22, 3:00 PM)29.36 "Hg (Aug 25, 2:00 PM)
Average75 °F78%29.74 "Hg
* Reported Aug 17 4:00 AM — Sep 1 4:00 AM, Daegu, Weather by CustomWeather, © 2015

Note: Actual official high and low records may vary slightly from our data, if they occured in-between our weather recording intervals... More about our weather records

Advertising

Daegu weather history for previous 24 hours

 ConditionsComfort  
Time TempWeatherWind HumidityBarometerVisibility
4:00 AM
Tue, Sep 1
72 °FLight rain. Mostly cloudy.1 mph83%29.80 "HgN/A
3:00 AM73 °FPartly cloudy.1 mph74%29.80 "HgN/A
2:00 AM73 °FPartly cloudy.1 mph74%29.83 "HgN/A
1:00 AM72 °FPartly cloudy.1 mph78%29.83 "HgN/A
12:00 AM73 °FPartly cloudy.1 mph74%29.86 "HgN/A
11:00 PM
Mon, Aug 31
72 °FPartly cloudy.1 mph78%29.86 "HgN/A
10:00 PM72 °FPassing clouds.6 mph78%29.89 "HgN/A
9:00 PM73 °FPassing clouds.6 mph74%29.86 "HgN/A
8:00 PM73 °FPassing clouds.10 mph78%29.86 "HgN/A
7:00 PM79 °FPassing clouds.13 mph65%29.86 "HgN/A
6:00 PM79 °FPartly sunny.13 mph65%29.86 "HgN/A
5:00 PM81 °FPartly sunny.12 mph62%29.83 "HgN/A
4:00 PM82 °FPartly sunny.10 mph62%29.83 "HgN/A
3:00 PM82 °FPartly sunny.12 mph58%29.83 "HgN/A
2:00 PM84 °FPartly sunny.10 mph58%29.83 "HgN/A
1:00 PM82 °FScattered clouds.9 mph62%29.86 "Hg6 mi
12:00 PM82 °FScattered clouds.9 mph62%29.86 "Hg6 mi
11:00 AM81 °FPartly sunny.7 mph66%29.89 "Hg6 mi
10:00 AM79 °FScattered clouds.7 mph70%29.89 "Hg5 mi
9:00 AM73 °FFog.3 mph83%29.89 "Hg3 mi
8:00 AM72 °FFog.1 mph88%29.89 "Hg3 mi
7:00 AM68 °FFog.1 mph94%29.89 "Hg2 mi
6:00 AM68 °FFog.1 mph88%29.89 "Hg3 mi
5:00 AM68 °FFog.1 mph94%29.86 "Hg3 mi
Weather by CustomWeather, © 2015

See weather overviewHow to use our weather pages